KF4URA Weather Reports


Display with metric or nautical units.
time (UTC)temp
F
wind
direction
speed
MPH
gust
MPH
rain 1hr
in
rain 24hr
in
rain mn
in
humidity
%
barometer
mb
20260510225400 63 96 0.0 2.0 0.00 0.00 0.00 47 1016.8
20260510224334 63 34 0.0 5.0 0.00 0.00 0.00 47 1016.8
20260510222215 64 281 0.0 5.0 0.00 0.00 0.00 46 1016.8
20260510221157 64 279 1.0 5.0 0.00 0.00 0.00 48 1016.7
20260510220204 65 284 0.0 3.0 0.00 0.00 0.00 48 1016.8
20260510215211 65 283 0.0 3.0 0.00 0.00 0.00 48 1016.7
20260510214148 64 42 0.0 4.0 0.00 0.00 0.00 45 1016.4
20260510213137 64 267 0.0 4.0 0.00 0.00 0.00 46 1016.2
20260510212105 63 311 0.0 3.0 0.00 0.00 0.00 48 1015.9
20260510211111 63 275 0.0 3.0 0.00 0.00 0.00 46 1015.8
20260510210058 63 298 0.0 0.0 0.00 0.00 0.00 47 1015.9
20260510205111 63 298 0.0 5.0 0.00 0.00 0.00 46 1016.0
20260510204126 64 80 0.0 5.0 0.00 0.00 0.00 45 1015.9
20260510202038 64 355 1.0 3.0 0.00 0.00 0.00 48 1015.9
20260510201039 64 284 1.0 3.0 0.00 0.00 0.00 46 1016.0
20260510200018 64 262 1.0 4.0 0.00 0.00 0.00 47 1016.1
20260510194952 64 276 1.0 5.0 0.00 0.00 0.00 47 1016.2
20260510193946 64 24 1.0 10.0 0.00 0.00 0.00 48 1016.2
20260510192955 64 75 1.0 10.0 0.00 0.00 0.00 47 1016.1
20260510192011 65 24 1.0 5.0 0.00 0.00 0.00 46 1016.4
20260510191029 65 282 0.0 5.0 0.00 0.00 0.00 47 1016.4
20260510190035 65 344 0.0 3.0 0.00 0.00 0.00 46 1016.2
20260510185002 65 17 1.0 6.0 0.00 0.00 0.00 47 1016.1
20260510184010 65 94 1.0 6.0 0.00 0.00 0.00 45 1016.1
20260510182950 65 286 1.0 6.0 0.00 0.00 0.00 46 1016.0
20260510181922 65 30 1.0 5.0 0.00 0.00 0.00 49 1016.1
20260510180937 65 321 0.0 5.0 0.00 0.00 0.00 48 1016.0
20260510175948 65 0 1.0 5.0 0.00 0.00 0.00 49 1016.2
20260510174918 64 312 1.0 4.0 0.00 0.00 0.00 49 1016.0
20260510173933 65 323 1.0 4.0 0.00 0.00 0.00 48 1015.7
20260510172906 65 79 1.0 4.0 0.00 0.00 0.00 52 1015.7
20260510171926 65 329 0.0 3.0 0.00 0.00 0.00 49 1015.7
20260510170910 64 301 0.0 5.0 0.00 0.00 0.00 51 1015.8
20260510165916 64 91 1.0 5.0 0.00 0.00 0.00 48 1015.8
20260510164843 64 294 1.0 4.0 0.00 0.00 0.00 48 1015.8
20260510163858 64 22 1.0 5.0 0.00 0.00 0.00 49 1016.1
20260510162836 64 86 1.0 5.0 0.00 0.00 0.00 47 1015.9
20260510161812 64 5 0.0 4.0 0.00 0.00 0.00 46 1015.8
20260510160745 63 33 1.0 4.0 0.00 0.00 0.00 48 1016.0
20260510155713 63 30 1.0 3.0 0.00 0.00 0.00 50 1015.8
20260510154736 63 19 0.0 4.0 0.00 0.00 0.00 54 1015.7
20260510153726 63 279 0.0 5.0 0.00 0.00 0.00 53 1015.6
20260510152655 62 91 0.0 7.0 0.00 0.00 0.00 57 1015.4
20260510151633 61 323 0.0 3.0 0.00 0.00 0.00 54 1015.2
20260510150602 61 94 0.0 1.0 0.00 0.00 0.00 54 1015.1
20260510145534 60 300 0.0 4.0 0.00 0.00 0.00 57 1015.0
20260510144501 60 36 0.0 4.0 0.00 0.00 0.00 56 1014.9
20260510143426 59 0 1.0 3.0 0.00 0.00 0.00 56 1014.8
20260510141335 57 326 0.0 3.0 0.00 0.00 0.00 59 1014.5
20260510140317 57 80 0.0 3.0 0.00 0.00 0.00 58 1014.3
20260510134153 57 94 1.0 3.0 0.00 0.00 0.00 59 1014.2
20260510133128 57 355 0.0 1.0 0.00 0.00 0.00 62 1014.2
20260510132137 56 88 1.0 4.0 0.00 0.00 0.00 61 1013.9
20260510131104 55 81 0.0 4.0 0.00 0.00 0.00 64 1013.9
20260510124909 54 351 0.0 2.0 0.00 0.00 0.00 66 1013.9
20260510122742 54 70 0.0 2.0 0.00 0.00 0.00 68 1013.4
20260510121805 54 69 0.0 0.0 0.00 0.00 0.00 69 1013.3
20260510120820 54 69 0.0 1.0 0.00 0.00 0.00 69 1013.1
20260510115747 54 69 0.0 2.0 0.00 0.00 0.00 69 1013.0
20260510114727 54 69 0.0 1.0 0.00 0.00 0.00 69 1013.0
20260510112546 54 74 0.0 2.0 0.00 0.00 0.00 71 1012.6
20260510111556 54 335 0.0 1.0 0.00 0.00 0.00 71 1012.4
20260510110522 54 333 0.0 3.0 0.00 0.00 0.00 71 1012.4
20260510105517 54 13 0.0 0.0 0.00 0.00 0.00 75 1012.0
20260510104450 55 15 0.0 2.0 0.00 0.00 0.00 75 1011.8
20260510103445 55 13 0.0 2.0 0.00 0.00 0.00 75 1011.7
20260510102501 55 24 0.0 1.0 0.00 0.00 0.00 75 1011.4
20260510100407 56 24 0.0 1.0 0.00 0.00 0.00 76 1011.4
20260510095342 56 26 0.0 0.0 0.00 0.00 0.00 73 1010.9
20260510094401 56 326 0.0 0.0 0.00 0.02 0.00 73 1010.8
20260510093409 56 326 0.0 0.0 0.00 0.02 0.00 73 1010.5
20260510092418 57 326 0.0 2.0 0.00 0.02 0.00 73 1010.5
20260510091411 57 331 0.0 2.0 0.00 0.03 0.00 73 1010.3
20260510090420 58 333 0.0 0.0 0.00 0.03 0.00 72 1010.1
20260510085351 58 336 0.0 2.0 0.00 0.03 0.00 70 1009.9
20260510084339 58 348 0.0 2.0 0.00 0.03 0.00 70 1009.7
20260510083316 58 324 0.0 2.0 0.00 0.03 0.00 69 1009.3
20260510081129 59 299 0.0 3.0 0.00 0.03 0.00 71 1009.2
20260510080147 59 273 0.0 0.0 0.00 0.03 0.00 75 1009.2
20260510075147 60 273 0.0 2.0 0.00 0.03 0.00 76 1008.9
20260510074200 60 274 0.0 3.0 0.00 0.04 0.00 77 1009.0
20260510073146 60 277 0.0 1.0 0.00 0.04 0.00 76 1009.1
20260510072143 60 277 0.0 0.0 0.00 0.04 0.00 75 1009.1
20260510070105 61 277 0.0 3.0 0.00 0.04 0.00 73 1008.8
20260510065118 61 277 1.0 3.0 0.00 0.06 0.00 73 1008.9
20260510064107 61 261 1.0 3.0 0.00 0.06 0.00 72 1008.8
20260510063121 61 284 1.0 3.0 0.00 0.08 0.00 72 1008.7
20260510062103 61 309 0.0 3.0 0.00 0.09 0.00 73 1008.8
20260510055938 62 264 1.0 8.0 0.00 0.11 0.00 73 1008.9
20260510054936 62 244 2.0 9.0 0.00 0.11 0.00 73 1008.9
20260510053905 62 273 2.0 9.0 0.00 0.11 0.00 76 1009.1
20260510051821 60 194 0.0 2.0 0.00 0.12 0.00 81 1009.0
20260510050846 60 194 0.0 2.0 0.00 0.12 0.00 83 1008.6
20260510045848 60 194 0.0 0.0 0.00 0.12 0.00 82 1008.5
20260510044906 61 194 0.0 0.0 0.00 0.12 0.00 81 1008.4
20260510041719 61 194 0.0 0.0 0.00 0.13 0.00 75 1008.1
20260510040654 62 194 0.0 0.0 0.00 0.13 0.00 74 1008.0
20260510035636 62 194 0.0 0.0 0.00 0.13 0.13 73 1007.9
20260510034626 62 194 0.0 2.0 0.00 0.13 0.13 72 1007.7
20260510033604 62 194 0.0 2.0 0.00 0.13 0.13 72 1007.7
20260510032628 63 194 0.0 1.0 0.00 0.14 0.13 72 1007.6
20260510031650 63 194 0.0 1.0 0.00 0.14 0.13 71 1007.6
20260510030633 63 194 0.0 0.0 0.00 0.14 0.13 70 1007.5
20260510022221 64 193 0.0 1.0 0.00 0.14 0.13 67 1007.3
20260510021240 65 192 0.0 1.0 0.00 0.14 0.13 67 1007.1
20260510015133 65 209 0.0 2.0 0.00 0.14 0.13 66 1006.9
20260510014103 65 209 0.0 0.0 0.00 0.14 0.13 65 1006.6
20260510013125 66 209 0.0 0.0 0.00 0.14 0.13 64 1006.5
20260510012052 66 209 0.0 0.0 0.00 0.14 0.13 63 1006.3
20260510011027 67 209 0.0 0.0 0.00 0.14 0.13 62 1006.3
20260510010041 67 209 0.0 1.0 0.00 0.14 0.13 60 1006.2
20260510005018 68 209 0.0 2.0 0.00 0.15 0.13 59 1006.1
20260510003948 68 209 0.0 0.0 0.00 0.15 0.13 59 1006.0
20260510003010 68 214 0.0 1.0 0.00 0.15 0.13 58 1005.9
20260510002011 69 214 0.0 3.0 0.00 0.15 0.13 58 1005.8
20260510000942 69 213 0.0 2.0 0.00 0.15 0.13 57 1005.6
20260509235949 70 215 0.0 1.0 0.00 0.15 0.13 56 1005.6
20260509235003 70 217 1.0 6.0 0.00 0.15 0.13 55 1005.4
20260509232840 71 269 1.0 7.0 0.00 0.15 0.13 54 1005.4
20260509231834 71 220 1.0 6.0 0.00 0.15 0.13 54 1005.4
20260509230841 71 238 1.0 7.0 0.00 0.15 0.13 54 1005.3
20260509225813 71 217 1.0 7.0 0.00 0.15 0.13 54 1005.3